Other Public Products
Issued by NWS Grand Forks, ND

Home | Current Version | Previous Version | Graphics & Text | Print | Product List | Glossary On
Versions: 1 2 3 4 5 6 7 8 9 10 11 12 13 14 15 16 17 18 19 20 21 22 23 24 25 26 27 28 29 30 31 32 33 34 35 36 37 38 39 40 41 42 43 44 45 46 47 48 49 50
528
FPUS83 KFGF 061531
OPUFGF
PRAIRIE TO PINES WEATHER ROUNDUP
NATIONAL WEATHER SERVICE EASTERN NORTH DAKOTA/GRAND FORKS ND
900 AM CST TUE DEC 06 2016

 **SATELLITE DATA USED TO AUGMENT SKY COVER AT AUTOMATED STATIONS**
 *****  WEATHER ACROSS EASTERN NORTH DAKOTA  *****

CITY           SKY/WX    TMP DP  RH WIND       PRES   REMARKS
GRAND FORKS    SNOW      29  26  89 NW32G40   29.28F VSB 1/2 WCI  13
GRAND FORKS AF SNOW      28  26  92 NW28G35   29.31S VSB 1/2 WCI  13
GRAND CITY NWS   N/A     28 N/A N/A N31         N/A  WCI  12
BUXTON           N/A     43  42  99 W22         N/A
DEVILS LAKE    SNOW      19  18  93 NW36G41   29.50R VSB 1/2 WCI  -1
FARGO          SNOW      23  20  88 W33G41    29.40R VSB 1/2 WCI   5
WAHPETON ARPT  CLOUDY    23  18  80 W31G41    29.51R WCI   5
$$

 *****  WEATHER ACROSS CENTRAL AND WESTERN NORTH DAKOTA  *****

CITY           SKY/WX    TMP DP  RH WIND       PRES   REMARKS
JAMESTOWN      SNOW      15  12  88 NW40G51   29.56R VSB 1/4 WCI  -8
BISMARCK       LGT SNOW   9   7  92 NW30G41   29.84R VSB 3/4 WCI -14
MINOT          SNOW      10   6  84 W39G48    29.79R VSB 1/4 WCI -15
MINOT AFB      BLWGSNOW   9   5  85 NW36G45   29.77R VSB<1/4 WCI -16
GARRISON         N/A      8   4  83 MISG      29.80R
WILLISTON      CLOUDY     4  -2  76 W17       30.02R WCI -16
DICKINSON      MIX PCPN   2  -4  76 NW31G43   29.89R VSB 3/4 WCI -24
HETTINGER      CLOUDY     3  -3  76 NW31G43   29.92R HAZE    WCI -22
$$

 *****  OTHER OBSERVATIONS NORTHEAST NORTH DAKOTA  *****

CITY           SKY/WX    TMP DP  RH WIND       PRES   REMARKS
WALHALLA       SNOW      27  27 100 N33G44    29.40R VSB 1/2 WCI   9
LANGDON        FOG       23  23 100 NW43G52   29.40S VSB<1/4 WCI   3
CAVALIER       HVY SNOW  28  27  93 N36G44    29.35R VSB 1/4 WCI  12
GRAFTON        FOG       28  28 100 N30G43    29.32R VSB 1/4 WCI  13
CANDO          SNOW      18  18 100 NW37G46   29.56S VSB 1/2 WCI  -4
FORT TOTTEN      N/A     19  19 100 NW16      29.95S WCI   4
ROLLA          HVY SNOW  14  14 100 NW43G54   29.57S VSB<1/4 WCI -10
RUGBY          HVY SNOW  12  12 100 NW40G48   29.64R VSB 1/4 WCI -12
 ***** THE ABOVE OBSERVATIONS ARE NON NWS ARE NOT QUALITY
        CONTROLLED AND MAY MIS-REPORT RAIN FOR SNOW...
$$

 *****  OTHER OBSERVATIONS SOUTHEAST NORTH DAKOTA *****

CITY           SKY/WX    TMP DP  RH WIND       PRES   REMARKS
COOPERSTOWN    SNOW      18  16  93 W37G48    29.44R VSB 1/4 WCI  -4
VALLEY CITY    HVY SNOW  16  16 100 NW40G51   29.51R VSB 1/4 WCI  -7
OAKES          NOT AVBL
GWINNER        NOT AVBL
SHEYENNE NWR     N/A     20  14  78 NW26      29.95S WCI   2
BUFFALO          N/A     19  17  90 N32G51      N/A  WCI  -1
WYNDMERE         N/A     21  18  86 W28         N/A  WCI   3
 ***** THE ABOVE OBSERVATIONS ARE NON NWS ARE NOT QUALITY
       CONTROLLED AND MAY MIS-REPORT RAIN FOR SNOW...
$$

  *****  WEATHER ACROSS NORTHERN MINNESOTA  *****

CITY           SKY/WX    TMP DP  RH WIND       PRES   REMARKS
FLAG ISLAND    CLOUDY    27  21  80 S18G26    29.38R WCI  13
WARROAD        CLOUDY    25  19  80 SE14G23   29.37S WCI  13
ROSEAU         CLOUDY    25  19  80 SE8       29.36R WCI  16
HALLOCK        LGT SNOW  25  23  93 NE10      29.33R VSB 3/4 WCI  15
THF RVR FALLS  LGT SNOW  21  19  93 SE21      29.27F VSB 3/4 WCI   6
HALSTAD          N/A     27  25  91 W26         N/A  WCI  12
FOSSTON        LGT SNOW  19  18  93 SE17G24   29.31F WCI   4
BAUDETTE       CLOUDY    24  18  77 S14G22    29.40R WCI  12
WASKISH        CLOUDY    21  18  86 SE12G21   29.40F WCI   9
CROOKSTON      LGT SNOW  28  28 100 W16       29.26F VSB 3/4 WCI  17
$$
  *****  WEATHER ACROSS CENTRAL AND WEST MINNESOTA  *****

CITY           SKY/WX    TMP DP  RH WIND       PRES   REMARKS
BEMIDJI        LGT SNOW  19  14  82 S15G23    29.38F WCI   4
PARK RAPIDS    LGT SNOW  18  12  77 S21       29.42F VSB 3/4 WCI   1
WADENA         LGT SNOW  18  14  86 S16       29.45F WCI   3
DETROIT LAKES  LGT SNOW  27  25  93 W15G22    29.37F VSB 1   WCI  15
MOORHEAD       LGT RAIN  21  19  93 W31G43    29.41R VSB 3/4 WCI   3
FERGUS FALLS   LGT SNOW  21  19  93 W24G33    29.53R VSB 1   WCI   4
ELBOW LAKE     LGT SNOW  20  19  95 SW22G32   29.54R VSB 1   WCI   4
MORRIS MN      MOCLDY    19  16  86 W26G35    29.58R WCI   1
STAPLES        LGT SNOW  18  12  79 S17G24    29.50F WCI   2
WHEATON        LGT SNOW  21  19  93 W20G30    29.60R WCI   6
$$
  *****  WEATHER ELSEWHERE ACROSS MINNESOTA  *****

CITY           SKY/WX    TMP DP  RH WIND       PRES   REMARKS
DULUTH         CLOUDY    24  18  77 SW18G31   29.54R WCI  10
INTRNTL FALLS  CLOUDY    25  19  78 S8        29.44R WCI  16
ELY            FLURRIES  28  27  93 S13G18    29.46F WCI  18
CLOQUET        CLOUDY    23  16  74 S13G21    29.55S WCI  11
BRAINERD       FLURRIES  19  12  74 S15G30    29.55F WCI   5
HIBBING        CLOUDY    21  15  78 S14G23    29.51R WCI   8
ALEXANDRIA     SNOW      19  15  84 SW22G30   29.54S VSB 1/2 WCI   2
SAINT CLOUD    CLOUDY    19  11  70 SW22G28   29.65F WCI   2
MINNEAPOLIS    CLOUDY    21  11  65 W14G25    29.74R WCI   8
$$

  *****  WEATHER ACROSS SOUTH DAKOTA  *****

CITY           SKY/WX    TMP DP  RH WIND       PRES   REMARKS
SIOUX FALLS    FLURRIES  17  11  77 W20G32    29.86R WCI   1
BROOKINGS      FLURRIES  14   8  77 W32G39    29.74S WCI  -7
WATERTOWN      LGT SNOW  14  10  84 W30G37    29.69R VSB 3/4 WCI  -7
HURON          PTCLDY    16   7  67 W33G43    29.88R WCI  -5
SISSETON         N/A     20  14  77 NW28G38   29.57R WCI   2
ABERDEEN       CLOUDY    15   7  70 W35G48    29.73R WCI  -7
MITCHELL       MOCLDY    17   8  67 W23G32    29.93R WCI  -1
PIERRE         MOCLDY    12   5  73 NW37G46   29.94S BLWGSNOWWCI -11
MOBRIDGE       LGT SNOW  11   4  73 NW30G47   29.84R VSB 3/4 WCI -11
RAPID CITY     CLEAR     10   1  67 N16       29.95S WCI  -7
$$

  *****  SOME WEATHER IN NEARBY STATES *****

CITY           SKY/WX    TMP DP  RH WIND       PRES   REMARKS
GLASGOW MT     CLEAR     -1  -8  72 NW24G30   30.14R WCI -25
GREAT FALLS MT FLURRIES   0  -4  83 N7        30.14R WCI -13
CHEYENNE WY    CLEAR     11 -15  30 W15       29.87S WCI  -5
SCOTTSBLUFF NE CLEAR      9   2  73 NW7       29.99R WCI  -2
OMAHA NE       SUNNY     24  11  57 NW9       30.01S WCI  14
DES MOINES IA  MOSUNNY   28  17  63 NW18      29.93R WCI  15
DAVENPORT IA   FOG       33  32  96 SW7       29.82R VSB 1
CHICAGO IL     CLOUDY    31  29  92 CALM      29.77R FOG
EAU CLAIRE WI  LGT SNOW  29  26  89 W13       29.69S FOG     WCI  19
LA CROSSE WI   CLOUDY    33  29  85 W8        29.75S
$$

  *****  SOME NATIONAL WEATHER *****

CITY           SKY/WX    TMP DP  RH WIND       PRES   REMARKS
LA GUARDIA NY  PTSUNNY   46  30  53 NE10      30.14S
RALEIGH NC     LGT RAIN  47  45  93 E13       29.89F VSB 1
ATLANTA GA     LGT RAIN  53  53 100 SE5       29.74R FOG
NEW ORLEANS LA CLOUDY    56  53  90 W10       29.93R
OKLAHOMA CITY  CLOUDY    36  24  62 N25G32    30.04R
ALBUQUERQUE NM CLOUDY    38  18  44 SE10      29.94R
SALT LAKE CITY MOCLDY    24  11  57 SE8       29.87S WCI  15
LOS ANGELES CA MOCLDY    56  50  80 SE3       30.00R
BOISE ID       LGT SNOW  24  18  77 SE10      29.89R WCI  14
SEATTLE WA     PTCLDY    32  31  96 N7        30.08R
$$

*** WEATHER ACROSS MANITOBA...SASKATCHEWAN AND ONTARIO ***
                ***ONTARIO***

CITY           SKY/WX    TMP DP  RH WIND       PRES   REMARKS
GERALDTON      LGT SNOW  30  28  93 E15       29.75F WCI  19
THUNDER BAY    LGT RAIN  37  32  81 S14G26    29.60F
SIOUX LOOKOUT  LGT SNOW  32  32 100 E5        29.44F
TORONTO        PTSUNNY   39  36  87 E12G21    29.98F
BIG TROUT LK   CLOUDY    21  19  93 E9        29.88R WCI  11
PICKLE LAKE    HVY SNOW  23  23 100 E14G22    29.63F VSB 1/4 WCI  11
DRYDEN         CLOUDY    32  32 100 SE9       29.41S WCI  24
KENORA         FLURRIES  30  27  86 S10       29.37S WCI  21
$$
                *** MANITOBA***

CITY           SKY/WX    TMP DP  RH WIND       PRES   REMARKS
BRANDON        FLURRIES  19  16  86 N22G30    29.68S WCI   3
DAUPHIN        FRZ RAIN  18  16  93 NW15G23   29.81S FOG     WCI   3
ISLAND LAKE    NOT AVBL
PILOT MOUND      N/A     21  21 100 NW28G39     N/A  WCI   3
THE PAS        FLURRIES  16  12  86 NW16      29.96S WCI   0
THOMPSON       LGT SNOW  18  14  86 NE6       29.94S WCI   9
WINNIPEG       LGT SNOW  28  27  93 N30G43    29.41R VSB 3/4 WCI  13
LYNN LAKE      FLURRIES  16  14  93 N5        29.96R WCI   9
CHURCHILL      SNOW      27  25  93 N20       29.99S VSB 1/4 WCI  13
GILLAM         FLURRIES  19  18  93 NE2       29.96R
$$
                ***SASKATCHEWAN***

CITY           SKY/WX    TMP DP  RH WIND       PRES   REMARKS
ESTEVAN        LGT SNOW   7   3  85 NW25G35   29.92S VSB 1   WCI -15
KINDERSLEY     CRYSTALS  -4  -9  77 NW14G21   30.17R WCI -24
LLOYDMINSTER   MOCLDY    -6 -11  77 NW9       30.19S WCI -22
PRINCE ALBERT  FLURRIES   3  -4  72 NW12      30.09R WCI -13
REGINA         CLOUDY     5   0  78 NW22G28   30.02R BLWGSNOWWCI -16
YORKTON        FLURRIES   9   5  85 NW21G30   29.91R WCC1F1C2F2C3F3C4F4C5F5C6F6C7F7C8F8C9F9CaFaCbFbCcFcCdFdCe!



USA.gov is the U.S. government's official web portal to all federal, state and local government web resources and services.